contact:dominique.lefevre@mio.osupytheas.fr, maurice.libes@osupytheas.fr, didier.mallarino@osupytheas.fr
Project:EMSO http://www.emso-fr.org/EMSO-France
Depth: 2436.0 m
Title:EMSO Ligure Ouest : Data MII capteur MICROCAT
DateTime_Computer,Latitude,Longitude,Temperature,Conductivity,Pressure,DateTime_Instrument
DateTime_Computer,Latitude,Longitude,degC,S m-1,dbar,DateTime_Instrument
2022-04-30T00:00:32Z,42.805,6.029,13.2996,4.60034,2470.25,2022-4-30T02:02:12Z
2022-04-30T00:03:35Z,42.805,6.029,13.2999,4.60036,2470.227,2022-4-30T02:05:15Z
2022-04-30T00:06:38Z,42.805,6.029,13.2993,4.60034,2470.217,2022-4-30T02:08:18Z
2022-04-30T00:09:42Z,42.805,6.029,13.2996,4.60035,2470.264,2022-4-30T02:11:21Z
2022-04-30T00:12:45Z,42.805,6.029,13.3000,4.60034,2470.25,2022-4-30T02:14:24Z
2022-04-30T00:15:48Z,42.805,6.029,13.2999,4.60035,2470.227,2022-4-30T02:17:27Z
2022-04-30T00:18:51Z,42.805,6.029,13.2999,4.60036,2470.264,2022-4-30T02:20:31Z
2022-04-30T00:21:54Z,42.805,6.029,13.2996,4.60034,2470.227,2022-4-30T02:23:34Z
2022-04-30T00:24:57Z,42.805,6.029,13.2997,4.60034,2470.25,2022-4-30T02:26:37Z
2022-04-30T00:28:00Z,42.805,6.029,13.3001,4.60035,2470.25,2022-4-30T02:29:40Z
2022-04-30T00:31:03Z,42.805,6.029,13.2993,4.60034,2470.25,2022-4-30T02:32:43Z
2022-04-30T00:34:06Z,42.805,6.029,13.2997,4.60034,2470.227,2022-4-30T02:35:46Z
2022-04-30T00:37:10Z,42.805,6.029,13.2998,4.60034,2470.227,2022-4-30T02:38:49Z
2022-04-30T00:40:13Z,42.805,6.029,13.2998,4.60034,2470.203,2022-4-30T02:41:52Z
2022-04-30T00:43:16Z,42.805,6.029,13.3000,4.60035,2470.217,2022-4-30T02:44:56Z
2022-04-30T00:46:19Z,42.805,6.029,13.2999,4.60036,2470.203,2022-4-30T02:47:59Z
2022-04-30T00:49:22Z,42.805,6.029,13.2998,4.60034,2470.203,2022-4-30T02:51:02Z
2022-04-30T00:52:25Z,42.805,6.029,13.2999,4.60035,2470.227,2022-4-30T02:54:05Z
2022-04-30T00:55:28Z,42.805,6.029,13.2996,4.60033,2470.203,2022-4-30T02:57:08Z
2022-04-30T00:58:31Z,42.805,6.029,13.2999,4.60034,2470.24,2022-4-30T03:00:11Z
2022-04-30T01:01:35Z,42.805,6.029,13.2993,4.60036,2470.18,2022-4-30T03:03:14Z
2022-04-30T01:04:38Z,42.805,6.029,13.2994,4.60038,2470.203,2022-4-30T03:06:17Z
2022-04-30T01:07:41Z,42.805,6.029,13.2998,4.60035,2470.217,2022-4-30T03:09:20Z
2022-04-30T01:10:44Z,42.805,6.029,13.2998,4.60034,2470.194,2022-4-30T03:12:24Z
2022-04-30T01:13:47Z,42.805,6.029,13.2999,4.60033,2470.24,2022-4-30T03:15:27Z
2022-04-30T01:16:50Z,42.805,6.029,13.3003,4.60034,2470.227,2022-4-30T03:18:30Z
2022-04-30T01:19:53Z,42.805,6.029,13.2995,4.60033,2470.24,2022-4-30T03:21:33Z
2022-04-30T01:22:56Z,42.805,6.029,13.2998,4.60035,2470.24,2022-4-30T03:24:36Z
2022-04-30T01:26:00Z,42.805,6.029,13.2996,4.60034,2470.227,2022-4-30T03:27:39Z
2022-04-30T01:29:03Z,42.805,6.029,13.2996,4.60034,2470.25,2022-4-30T03:30:42Z
2022-04-30T01:32:06Z,42.805,6.029,13.3000,4.60034,2470.203,2022-4-30T03:33:45Z
2022-04-30T01:35:09Z,42.805,6.029,13.2998,4.60033,2470.227,2022-4-30T03:36:49Z
2022-04-30T01:38:12Z,42.805,6.029,13.2993,4.60034,2470.194,2022-4-30T03:39:52Z
2022-04-30T01:41:15Z,42.805,6.029,13.2996,4.60034,2470.217,2022-4-30T03:42:55Z
2022-04-30T01:44:18Z,42.805,6.029,13.2996,4.60034,2470.194,2022-4-30T03:45:58Z
2022-04-30T01:47:21Z,42.805,6.029,13.2996,4.60034,2470.194,2022-4-30T03:49:01Z
2022-04-30T01:50:24Z,42.805,6.029,13.2998,4.60035,2470.217,2022-4-30T03:52:04Z
2022-04-30T01:53:28Z,42.805,6.029,13.2996,4.60035,2470.18,2022-4-30T03:55:07Z
2022-04-30T01:56:31Z,42.805,6.029,13.2997,4.60034,2470.24,2022-4-30T03:58:10Z
2022-04-30T01:59:34Z,42.805,6.029,13.2996,4.60035,2470.18,2022-4-30T04:01:13Z
2022-04-30T02:02:37Z,42.805,6.029,13.3001,4.60036,2470.24,2022-4-30T04:04:17Z
2022-04-30T02:05:40Z,42.805,6.029,13.2996,4.60034,2470.203,2022-4-30T04:07:20Z
2022-04-30T02:08:43Z,42.805,6.029,13.2996,4.60034,2470.194,2022-4-30T04:10:23Z
2022-04-30T02:11:46Z,42.805,6.029,13.2998,4.60035,2470.203,2022-4-30T04:13:26Z
2022-04-30T02:14:49Z,42.805,6.029,13.2996,4.60037,2470.194,2022-4-30T04:16:29Z
2022-04-30T02:17:53Z,42.805,6.029,13.2999,4.60034,2470.203,2022-4-30T04:19:32Z
2022-04-30T02:20:56Z,42.805,6.029,13.2995,4.60035,2470.18,2022-4-30T04:22:35Z
2022-04-30T02:23:59Z,42.805,6.029,13.2999,4.60034,2470.203,2022-4-30T04:25:38Z
2022-04-30T02:27:02Z,42.805,6.029,13.2998,4.60033,2470.227,2022-4-30T04:28:42Z
2022-04-30T02:30:05Z,42.805,6.029,13.2996,4.60034,2470.227,2022-4-30T04:31:45Z
2022-04-30T02:33:08Z,42.805,6.029,13.2997,4.60034,2470.227,2022-4-30T04:34:48Z
2022-04-30T02:36:11Z,42.805,6.029,13.3000,4.60034,2470.203,2022-4-30T04:37:51Z
2022-04-30T02:39:14Z,42.805,6.029,13.3000,4.60035,2470.217,2022-4-30T04:40:54Z
2022-04-30T02:42:18Z,42.805,6.029,13.2996,4.60035,2470.25,2022-4-30T04:43:57Z
2022-04-30T02:45:21Z,42.805,6.029,13.2997,4.60033,2470.203,2022-4-30T04:47:00Z
2022-04-30T02:48:24Z,42.805,6.029,13.2999,4.60033,2470.203,2022-4-30T04:50:03Z
2022-04-30T02:51:27Z,42.805,6.029,13.2993,4.60034,2470.25,2022-4-30T04:53:07Z
2022-04-30T02:54:30Z,42.805,6.029,13.2998,4.60034,2470.25,2022-4-30T04:56:10Z
2022-04-30T02:57:33Z,42.805,6.029,13.2998,4.60033,2470.25,2022-4-30T04:59:13Z
2022-04-30T03:00:36Z,42.805,6.029,13.2998,4.60033,2470.273,2022-4-30T05:02:16Z
2022-04-30T03:03:39Z,42.805,6.029,13.2997,4.60034,2470.25,2022-4-30T05:05:19Z
2022-04-30T03:06:43Z,42.805,6.029,13.2996,4.60037,2470.264,2022-4-30T05:08:22Z
2022-04-30T03:09:46Z,42.805,6.029,13.2996,4.60034,2470.236,2022-4-30T05:11:25Z
2022-04-30T03:12:49Z,42.805,6.029,13.3000,4.60035,2470.264,2022-4-30T05:14:28Z
2022-04-30T03:15:52Z,42.805,6.029,13.2995,4.60035,2470.264,2022-4-30T05:17:32Z
2022-04-30T03:18:55Z,42.805,6.029,13.2998,4.60034,2470.287,2022-4-30T05:20:35Z
2022-04-30T03:21:58Z,42.805,6.029,13.3000,4.60034,2470.25,2022-4-30T05:23:38Z
2022-04-30T03:25:01Z,42.805,6.029,13.2997,4.60033,2470.287,2022-4-30T05:26:41Z
2022-04-30T03:28:04Z,42.805,6.029,13.2996,4.60035,2470.273,2022-4-30T05:29:44Z
2022-04-30T03:31:08Z,42.805,6.029,13.2996,4.60040,2470.287,2022-4-30T05:32:47Z
2022-04-30T03:34:11Z,42.805,6.029,13.2998,4.60033,2470.273,2022-4-30T05:35:50Z
2022-04-30T03:37:14Z,42.805,6.029,13.2998,4.60034,2470.297,2022-4-30T05:38:53Z
2022-04-30T03:40:17Z,42.805,6.029,13.2997,4.60035,2470.26,2022-4-30T05:41:57Z
2022-04-30T03:43:20Z,42.805,6.029,13.3000,4.60034,2470.297,2022-4-30T05:45:00Z
2022-04-30T03:46:23Z,42.805,6.029,13.2997,4.60033,2470.287,2022-4-30T05:48:03Z
2022-04-30T03:49:26Z,42.805,6.029,13.3000,4.60035,2470.334,2022-4-30T05:51:06Z
2022-04-30T03:52:29Z,42.805,6.029,13.2997,4.60036,2470.297,2022-4-30T05:54:09Z
2022-04-30T03:55:32Z,42.805,6.029,13.3001,4.60035,2470.297,2022-4-30T05:57:12Z
2022-04-30T03:58:36Z,42.805,6.029,13.2995,4.60034,2470.31,2022-4-30T06:00:15Z
2022-04-30T04:01:39Z,42.805,6.029,13.2995,4.60036,2470.297,2022-4-30T06:03:18Z
2022-04-30T04:04:42Z,42.805,6.029,13.2999,4.60036,2470.31,2022-4-30T06:06:21Z
2022-04-30T04:07:45Z,42.805,6.029,13.2998,4.60035,2470.32,2022-4-30T06:09:25Z
2022-04-30T04:10:48Z,42.805,6.029,13.3001,4.60034,2470.31,2022-4-30T06:12:28Z
2022-04-30T04:13:51Z,42.805,6.029,13.2998,4.60035,2470.32,2022-4-30T06:15:31Z
2022-04-30T04:16:54Z,42.805,6.029,13.2996,4.60035,2470.297,2022-4-30T06:18:34Z
2022-04-30T04:19:57Z,42.805,6.029,13.2998,4.60037,2470.357,2022-4-30T06:21:37Z
2022-04-30T04:23:01Z,42.805,6.029,13.2996,4.60035,2470.32,2022-4-30T06:24:40Z
2022-04-30T04:26:04Z,42.805,6.029,13.2997,4.60034,2470.334,2022-4-30T06:27:43Z
2022-04-30T04:29:07Z,42.805,6.029,13.2996,4.60034,2470.343,2022-4-30T06:30:46Z
2022-04-30T04:32:10Z,42.805,6.029,13.2996,4.60034,2470.366,2022-4-30T06:33:50Z
2022-04-30T04:35:13Z,42.805,6.029,13.3000,4.60035,2470.38,2022-4-30T06:36:53Z
2022-04-30T04:38:16Z,42.805,6.029,13.2999,4.60036,2470.357,2022-4-30T06:39:56Z
2022-04-30T04:41:19Z,42.805,6.029,13.2997,4.60035,2470.343,2022-4-30T06:42:59Z
2022-04-30T04:44:22Z,42.805,6.029,13.2995,4.60034,2470.366,2022-4-30T06:46:02Z
2022-04-30T04:47:25Z,42.805,6.029,13.2999,4.60036,2470.366,2022-4-30T06:49:05Z
2022-04-30T04:50:29Z,42.805,6.029,13.2998,4.60036,2470.366,2022-4-30T06:52:08Z
2022-04-30T04:53:32Z,42.805,6.029,13.2996,4.60034,2470.357,2022-4-30T06:55:11Z
2022-04-30T04:56:35Z,42.805,6.029,13.2996,4.60036,2470.38,2022-4-30T06:58:15Z
2022-04-30T04:59:38Z,42.805,6.029,13.2998,4.60035,2470.343,2022-4-30T07:01:18Z
2022-04-30T05:02:41Z,42.805,6.029,13.2998,4.60036,2470.366,2022-4-30T07:04:21Z
2022-04-30T05:05:44Z,42.805,6.029,13.2998,4.60036,2470.366,2022-4-30T07:07:24Z
2022-04-30T05:08:47Z,42.805,6.029,13.2996,4.60034,2470.366,2022-4-30T07:10:27Z
2022-04-30T05:11:50Z,42.805,6.029,13.2996,4.60036,2470.366,2022-4-30T07:13:30Z
2022-04-30T05:14:54Z,42.805,6.029,13.2998,4.60035,2470.366,2022-4-30T07:16:33Z
2022-04-30T05:17:57Z,42.805,6.029,13.3003,4.60035,2470.404,2022-4-30T07:19:36Z
2022-04-30T05:21:00Z,42.805,6.029,13.2997,4.60035,2470.39,2022-4-30T07:22:39Z
2022-04-30T05:24:03Z,42.805,6.029,13.2998,4.60035,2470.39,2022-4-30T07:25:43Z
2022-04-30T05:27:06Z,42.805,6.029,13.2995,4.60035,2470.404,2022-4-30T07:28:46Z
2022-04-30T05:30:09Z,42.805,6.029,13.2997,4.60035,2470.39,2022-4-30T07:31:49Z
2022-04-30T05:33:12Z,42.805,6.029,13.3000,4.60035,2470.366,2022-4-30T07:34:52Z
2022-04-30T05:36:15Z,42.805,6.029,13.2996,4.60036,2470.437,2022-4-30T07:37:55Z
2022-04-30T05:39:19Z,42.805,6.029,13.2994,4.60036,2470.413,2022-4-30T07:40:58Z
2022-04-30T05:42:22Z,42.805,6.029,13.2999,4.60036,2470.39,2022-4-30T07:44:01Z
2022-04-30T05:45:25Z,42.805,6.029,13.2998,4.60036,2470.45,2022-4-30T07:47:04Z
2022-04-30T05:48:28Z,42.805,6.029,13.2999,4.60036,2470.413,2022-4-30T07:50:08Z
2022-04-30T05:51:31Z,42.805,6.029,13.2998,4.60035,2470.39,2022-4-30T07:53:11Z
2022-04-30T05:54:34Z,42.805,6.029,13.2996,4.60036,2470.413,2022-4-30T07:56:14Z
2022-04-30T05:57:37Z,42.805,6.029,13.2996,4.60036,2470.404,2022-4-30T07:59:17Z
2022-04-30T06:00:40Z,42.805,6.029,13.2996,4.60036,2470.413,2022-4-30T08:02:20Z
2022-04-30T06:03:44Z,42.805,6.029,13.2998,4.60034,2470.366,2022-4-30T08:05:23Z
2022-04-30T06:06:47Z,42.805,6.029,13.2997,4.60034,2470.413,2022-4-30T08:08:26Z
2022-04-30T06:09:50Z,42.805,6.029,13.2998,4.60035,2470.413,2022-4-30T08:11:29Z
2022-04-30T06:12:53Z,42.805,6.029,13.2998,4.60036,2470.427,2022-4-30T08:14:33Z
2022-04-30T06:15:56Z,42.805,6.029,13.3000,4.60036,2470.413,2022-4-30T08:17:36Z
2022-04-30T06:18:59Z,42.805,6.029,13.3000,4.60036,2470.399,2022-4-30T08:20:39Z
2022-04-30T06:22:02Z,42.805,6.029,13.2998,4.60035,2470.413,2022-4-30T08:23:42Z
2022-04-30T06:25:05Z,42.805,6.029,13.2998,4.60036,2470.427,2022-4-30T08:26:45Z
2022-04-30T06:28:08Z,42.805,6.029,13.2998,4.60035,2470.413,2022-4-30T08:29:48Z
2022-04-30T06:31:12Z,42.805,6.029,13.2996,4.60035,2470.437,2022-4-30T08:32:51Z
2022-04-30T06:34:15Z,42.805,6.029,13.2998,4.60036,2470.437,2022-4-30T08:35:54Z
2022-04-30T06:37:18Z,42.805,6.029,13.2997,4.60035,2470.427,2022-4-30T08:38:58Z
2022-04-30T06:40:21Z,42.805,6.029,13.2996,4.60034,2470.437,2022-4-30T08:42:01Z
2022-04-30T06:43:24Z,42.805,6.029,13.2997,4.60036,2470.413,2022-4-30T08:45:04Z
2022-04-30T06:46:27Z,42.805,6.029,13.3000,4.60036,2470.413,2022-4-30T08:48:07Z
2022-04-30T06:49:30Z,42.805,6.029,13.2996,4.60035,2470.483,2022-4-30T08:51:10Z
2022-04-30T06:52:33Z,42.805,6.029,13.3001,4.60036,2470.437,2022-4-30T08:54:13Z
2022-04-30T06:55:37Z,42.805,6.029,13.2999,4.60035,2470.45,2022-4-30T08:57:16Z
2022-04-30T06:58:40Z,42.805,6.029,13.2997,4.60036,2470.437,2022-4-30T09:00:19Z
2022-04-30T07:01:43Z,42.805,6.029,13.2998,4.60037,2470.437,2022-4-30T09:03:23Z
2022-04-30T07:04:46Z,42.805,6.029,13.3000,4.60036,2470.45,2022-4-30T09:06:26Z
2022-04-30T07:07:49Z,42.805,6.029,13.2998,4.60035,2470.437,2022-4-30T09:09:29Z
2022-04-30T07:10:52Z,42.805,6.029,13.3000,4.60037,2470.437,2022-4-30T09:12:32Z
2022-04-30T07:13:55Z,42.805,6.029,13.3001,4.60038,2470.437,2022-4-30T09:15:35Z
2022-04-30T07:16:58Z,42.805,6.029,13.2997,4.60035,2470.437,2022-4-30T09:18:38Z
2022-04-30T07:20:02Z,42.805,6.029,13.2997,4.60036,2470.413,2022-4-30T09:21:41Z
2022-04-30T07:23:05Z,42.805,6.029,13.2994,4.60035,2470.413,2022-4-30T09:24:44Z
2022-04-30T07:26:08Z,42.805,6.029,13.2998,4.60036,2470.437,2022-4-30T09:27:47Z
2022-04-30T07:29:11Z,42.805,6.029,13.3000,4.60035,2470.427,2022-4-30T09:30:51Z
2022-04-30T07:32:14Z,42.805,6.029,13.2998,4.60036,2470.413,2022-4-30T09:33:54Z
2022-04-30T07:35:17Z,42.805,6.029,13.2998,4.60036,2470.46,2022-4-30T09:36:57Z
2022-04-30T07:38:20Z,42.805,6.029,13.2998,4.60036,2470.404,2022-4-30T09:40:00Z
2022-04-30T07:41:23Z,42.805,6.029,13.2995,4.60036,2470.45,2022-4-30T09:43:03Z
2022-04-30T07:44:27Z,42.805,6.029,13.2999,4.60036,2470.413,2022-4-30T09:46:06Z
2022-04-30T07:47:30Z,42.805,6.029,13.3001,4.60036,2470.39,2022-4-30T09:49:09Z
2022-04-30T07:50:33Z,42.805,6.029,13.3000,4.60036,2470.437,2022-4-30T09:52:12Z
2022-04-30T07:53:36Z,42.805,6.029,13.3000,4.60034,2470.39,2022-4-30T09:55:16Z
2022-04-30T07:56:39Z,42.805,6.029,13.2996,4.60035,2470.427,2022-4-30T09:58:19Z
2022-04-30T07:59:42Z,42.805,6.029,13.2998,4.60036,2470.437,2022-4-30T10:01:22Z
2022-04-30T08:02:45Z,42.805,6.029,13.2999,4.60035,2470.46,2022-4-30T10:04:25Z
2022-04-30T08:05:48Z,42.805,6.029,13.2999,4.60034,2470.437,2022-4-30T10:07:28Z
2022-04-30T08:08:52Z,42.805,6.029,13.2997,4.60036,2470.39,2022-4-30T10:10:31Z
2022-04-30T08:11:55Z,42.805,6.029,13.2998,4.60035,2470.413,2022-4-30T10:13:34Z
2022-04-30T08:14:58Z,42.805,6.029,13.2995,4.60036,2470.413,2022-4-30T10:16:37Z
2022-04-30T08:18:01Z,42.805,6.029,13.2999,4.60033,2470.427,2022-4-30T10:19:41Z
2022-04-30T08:21:04Z,42.805,6.029,13.2998,4.60035,2470.413,2022-4-30T10:22:44Z
2022-04-30T08:24:07Z,42.805,6.029,13.2999,4.60036,2470.413,2022-4-30T10:25:47Z
2022-04-30T08:27:10Z,42.805,6.029,13.2997,4.60034,2470.413,2022-4-30T10:28:50Z
2022-04-30T08:30:13Z,42.805,6.029,13.2998,4.60036,2470.413,2022-4-30T10:31:53Z
2022-04-30T08:33:17Z,42.805,6.029,13.2993,4.60036,2470.437,2022-4-30T10:34:56Z
2022-04-30T08:36:20Z,42.805,6.029,13.2996,4.60035,2470.39,2022-4-30T10:37:59Z
2022-04-30T08:39:23Z,42.805,6.029,13.2994,4.60036,2470.413,2022-4-30T10:41:02Z
2022-04-30T08:42:26Z,42.805,6.029,13.2998,4.60037,2470.404,2022-4-30T10:44:06Z
2022-04-30T08:45:29Z,42.805,6.029,13.2993,4.60034,2470.38,2022-4-30T10:47:09Z
2022-04-30T08:48:32Z,42.805,6.029,13.2998,4.60035,2470.404,2022-4-30T10:50:12Z
2022-04-30T08:51:35Z,42.805,6.029,13.2996,4.60035,2470.39,2022-4-30T10:53:15Z
2022-04-30T08:54:38Z,42.805,6.029,13.2996,4.60035,2470.404,2022-4-30T10:56:18Z
2022-04-30T08:57:42Z,42.805,6.029,13.3000,4.60036,2470.39,2022-4-30T10:59:21Z
2022-04-30T09:00:45Z,42.805,6.029,13.2997,4.60036,2470.427,2022-4-30T11:02:24Z
2022-04-30T09:03:48Z,42.805,6.029,13.2996,4.60036,2470.39,2022-4-30T11:05:27Z
2022-04-30T09:06:51Z,42.805,6.029,13.2998,4.60036,2470.404,2022-4-30T11:08:31Z
2022-04-30T09:09:54Z,42.805,6.029,13.3000,4.60036,2470.38,2022-4-30T11:11:34Z
2022-04-30T09:12:57Z,42.805,6.029,13.2998,4.60035,2470.38,2022-4-30T11:14:37Z
2022-04-30T09:16:00Z,42.805,6.029,13.2998,4.60036,2470.366,2022-4-30T11:17:40Z
2022-04-30T09:19:03Z,42.805,6.029,13.2991,4.60035,2470.366,2022-4-30T11:20:43Z
2022-04-30T09:22:07Z,42.805,6.029,13.3000,4.60035,2470.404,2022-4-30T11:23:46Z
2022-04-30T09:25:10Z,42.805,6.029,13.2998,4.60036,2470.343,2022-4-30T11:26:49Z
2022-04-30T09:28:13Z,42.805,6.029,13.2996,4.60036,2470.343,2022-4-30T11:29:52Z
2022-04-30T09:31:16Z,42.805,6.029,13.2997,4.60036,2470.343,2022-4-30T11:32:56Z
2022-04-30T09:34:19Z,42.805,6.029,13.3000,4.60035,2470.343,2022-4-30T11:35:59Z
2022-04-30T09:37:22Z,42.805,6.029,13.2997,4.60035,2470.343,2022-4-30T11:39:02Z
2022-04-30T09:40:25Z,42.805,6.029,13.2993,4.60034,2470.39,2022-4-30T11:42:05Z
2022-04-30T09:43:28Z,42.805,6.029,13.2998,4.60034,2470.366,2022-4-30T11:45:08Z
2022-04-30T09:46:32Z,42.805,6.029,13.2999,4.60035,2470.343,2022-4-30T11:48:11Z
2022-04-30T09:49:35Z,42.805,6.029,13.2997,4.60035,2470.343,2022-4-30T11:51:14Z
2022-04-30T09:52:38Z,42.805,6.029,13.2998,4.60035,2470.334,2022-4-30T11:54:17Z
2022-04-30T09:55:41Z,42.805,6.029,13.2996,4.60035,2470.32,2022-4-30T11:57:21Z
2022-04-30T09:58:44Z,42.805,6.029,13.2996,4.60036,2470.32,2022-4-30T12:00:24Z
2022-04-30T10:01:47Z,42.805,6.029,13.2997,4.60034,2470.32,2022-4-30T12:03:27Z
2022-04-30T10:04:50Z,42.805,6.029,13.2997,4.60036,2470.343,2022-4-30T12:06:30Z
2022-04-30T10:07:53Z,42.805,6.029,13.3000,4.60034,2470.334,2022-4-30T12:09:33Z
2022-04-30T10:10:57Z,42.805,6.029,13.2998,4.60036,2470.334,2022-4-30T12:12:36Z
2022-04-30T10:14:00Z,42.805,6.029,13.3000,4.60033,2470.297,2022-4-30T12:15:39Z
2022-04-30T10:17:03Z,42.805,6.029,13.2992,4.60035,2470.343,2022-4-30T12:18:42Z
2022-04-30T10:20:06Z,42.805,6.029,13.2995,4.60036,2470.32,2022-4-30T12:21:46Z
2022-04-30T10:23:09Z,42.805,6.029,13.2999,4.60033,2470.297,2022-4-30T12:24:49Z
2022-04-30T10:26:12Z,42.805,6.029,13.2997,4.60034,2470.334,2022-4-30T12:27:52Z
2022-04-30T10:29:15Z,42.805,6.029,13.2997,4.60037,2470.32,2022-4-30T12:30:55Z
2022-04-30T10:32:18Z,42.805,6.029,13.2998,4.60035,2470.32,2022-4-30T12:33:58Z
2022-04-30T10:35:22Z,42.805,6.029,13.2998,4.60035,2470.334,2022-4-30T12:37:01Z
2022-04-30T10:38:25Z,42.805,6.029,13.2996,4.60035,2470.334,2022-4-30T12:40:04Z
2022-04-30T10:41:28Z,42.805,6.029,13.2998,4.60033,2470.32,2022-4-30T12:43:07Z
2022-04-30T10:44:31Z,42.805,6.029,13.2999,4.60033,2470.334,2022-4-30T12:46:11Z
2022-04-30T10:47:34Z,42.805,6.029,13.2998,4.60036,2470.31,2022-4-30T12:49:14Z
2022-04-30T10:50:37Z,42.805,6.029,13.2993,4.60034,2470.32,2022-4-30T12:52:17Z
2022-04-30T10:53:40Z,42.805,6.029,13.2996,4.60033,2470.297,2022-4-30T12:55:20Z
2022-04-30T10:56:43Z,42.805,6.029,13.2997,4.60035,2470.32,2022-4-30T12:58:23Z
2022-04-30T10:59:47Z,42.805,6.029,13.2996,4.60034,2470.297,2022-4-30T13:01:26Z
2022-04-30T11:02:50Z,42.805,6.029,13.3002,4.60035,2470.297,2022-4-30T13:04:29Z
2022-04-30T11:05:53Z,42.805,6.029,13.2998,4.60033,2470.297,2022-4-30T13:07:32Z
2022-04-30T11:08:56Z,42.805,6.029,13.2996,4.60033,2470.25,2022-4-30T13:10:36Z
2022-04-30T11:11:59Z,42.805,6.029,13.2999,4.60036,2470.31,2022-4-30T13:13:39Z
2022-04-30T11:15:02Z,42.805,6.029,13.2999,4.60036,2470.297,2022-4-30T13:16:42Z
2022-04-30T11:18:05Z,42.805,6.029,13.2999,4.60035,2470.287,2022-4-30T13:19:45Z
2022-04-30T11:21:08Z,42.805,6.029,13.2998,4.60034,2470.297,2022-4-30T13:22:48Z
2022-04-30T11:24:12Z,42.805,6.029,13.2998,4.60033,2470.273,2022-4-30T13:25:51Z
2022-04-30T11:27:15Z,42.805,6.029,13.2996,4.60035,2470.297,2022-4-30T13:28:54Z
2022-04-30T11:30:18Z,42.805,6.029,13.2998,4.60033,2470.264,2022-4-30T13:31:57Z
2022-04-30T11:33:21Z,42.805,6.029,13.2997,4.60034,2470.287,2022-4-30T13:35:01Z
2022-04-30T11:36:24Z,42.805,6.029,13.2999,4.60033,2470.31,2022-4-30T13:38:04Z
2022-04-30T11:39:27Z,42.805,6.029,13.2997,4.60033,2470.273,2022-4-30T13:41:07Z
2022-04-30T11:42:30Z,42.805,6.029,13.2996,4.60034,2470.297,2022-4-30T13:44:10Z
2022-04-30T11:45:33Z,42.805,6.029,13.2996,4.60034,2470.273,2022-4-30T13:47:13Z
2022-04-30T11:48:37Z,42.805,6.029,13.2996,4.60033,2470.273,2022-4-30T13:50:16Z
2022-04-30T11:51:40Z,42.805,6.029,13.2997,4.60033,2470.273,2022-4-30T13:53:19Z
2022-04-30T11:54:43Z,42.805,6.029,13.2998,4.60033,2470.273,2022-4-30T13:56:22Z
2022-04-30T11:57:46Z,42.805,6.029,13.2998,4.60034,2470.264,2022-4-30T13:59:26Z
2022-04-30T12:00:49Z,42.805,6.029,13.2996,4.60033,2470.254,2022-4-30T14:02:29Z
2022-04-30T12:03:52Z,42.805,6.029,13.2994,4.60034,2470.25,2022-4-30T14:05:32Z
2022-04-30T12:06:55Z,42.805,6.029,13.2997,4.60032,2470.25,2022-4-30T14:08:35Z
2022-04-30T12:09:58Z,42.805,6.029,13.2998,4.60033,2470.227,2022-4-30T14:11:38Z
2022-04-30T12:13:02Z,42.805,6.029,13.2999,4.60033,2470.264,2022-4-30T14:14:41Z
2022-04-30T12:16:05Z,42.805,6.029,13.3000,4.60033,2470.227,2022-4-30T14:17:44Z
2022-04-30T12:19:08Z,42.805,6.029,13.2998,4.60034,2470.24,2022-4-30T14:20:47Z
2022-04-30T12:22:11Z,42.805,6.029,13.2992,4.60036,2470.25,2022-4-30T14:23:51Z
2022-04-30T12:25:14Z,42.805,6.029,13.2998,4.60035,2470.203,2022-4-30T14:26:54Z
2022-04-30T12:28:17Z,42.805,6.029,13.2996,4.60034,2470.24,2022-4-30T14:29:57Z
2022-04-30T12:31:20Z,42.805,6.029,13.2996,4.60035,2470.227,2022-4-30T14:33:00Z
2022-04-30T12:34:23Z,42.805,6.029,13.2998,4.60035,2470.273,2022-4-30T14:36:03Z
2022-04-30T12:37:27Z,42.805,6.029,13.2998,4.60036,2470.227,2022-4-30T14:39:06Z
2022-04-30T12:40:30Z,42.805,6.029,13.2993,4.60035,2470.203,2022-4-30T14:42:09Z
2022-04-30T12:43:33Z,42.805,6.029,13.3000,4.60034,2470.24,2022-4-30T14:45:12Z
2022-04-30T12:46:36Z,42.805,6.029,13.2996,4.60035,2470.203,2022-4-30T14:48:16Z
2022-04-30T12:49:39Z,42.805,6.029,13.2993,4.60036,2470.18,2022-4-30T14:51:19Z
2022-04-30T12:52:42Z,42.805,6.029,13.3000,4.60034,2470.227,2022-4-30T14:54:22Z
2022-04-30T12:55:45Z,42.805,6.029,13.2996,4.60033,2470.217,2022-4-30T14:57:25Z
2022-04-30T12:58:48Z,42.805,6.029,13.2996,4.60033,2470.24,2022-4-30T15:00:28Z
2022-04-30T13:01:52Z,42.805,6.029,13.2998,4.60033,2470.217,2022-4-30T15:03:31Z
2022-04-30T13:04:55Z,42.805,6.029,13.3000,4.60033,2470.18,2022-4-30T15:06:34Z
2022-04-30T13:07:58Z,42.805,6.029,13.2997,4.60033,2470.18,2022-4-30T15:09:37Z
2022-04-30T13:11:01Z,42.805,6.029,13.3000,4.60033,2470.217,2022-4-30T15:12:41Z
2022-04-30T13:14:04Z,42.805,6.029,13.2997,4.60033,2470.203,2022-4-30T15:15:44Z
2022-04-30T13:17:07Z,42.805,6.029,13.2997,4.60034,2470.18,2022-4-30T15:18:47Z
2022-04-30T13:20:10Z,42.805,6.029,13.3000,4.60036,2470.24,2022-4-30T15:21:50Z
2022-04-30T13:23:13Z,42.805,6.029,13.2996,4.60033,2470.194,2022-4-30T15:24:53Z
2022-04-30T13:26:17Z,42.805,6.029,13.2997,4.60033,2470.227,2022-4-30T15:27:56Z
2022-04-30T13:29:20Z,42.805,6.029,13.2998,4.60034,2470.166,2022-4-30T15:30:59Z
2022-04-30T13:32:23Z,42.805,6.029,13.2997,4.60033,2470.18,2022-4-30T15:34:02Z
2022-04-30T13:35:26Z,42.805,6.029,13.3000,4.60034,2470.18,2022-4-30T15:37:06Z
2022-04-30T13:38:29Z,42.805,6.029,13.2997,4.60034,2470.203,2022-4-30T15:40:09Z
2022-04-30T13:41:32Z,42.805,6.029,13.2996,4.60033,2470.18,2022-4-30T15:43:12Z
2022-04-30T13:44:35Z,42.805,6.029,13.3000,4.60033,2470.194,2022-4-30T15:46:15Z
2022-04-30T13:47:38Z,42.805,6.029,13.2998,4.60034,2470.203,2022-4-30T15:49:18Z
2022-04-30T13:50:42Z,42.805,6.029,13.2998,4.60033,2470.18,2022-4-30T15:52:21Z
2022-04-30T13:53:45Z,42.805,6.029,13.2996,4.60034,2470.217,2022-4-30T15:55:24Z
2022-04-30T13:56:48Z,42.805,6.029,13.2998,4.60034,2470.203,2022-4-30T15:58:28Z
2022-04-30T13:59:51Z,42.805,6.029,13.2996,4.60034,2470.18,2022-4-30T16:01:31Z
2022-04-30T14:02:54Z,42.805,6.029,13.2998,4.60034,2470.203,2022-4-30T16:04:34Z
2022-04-30T14:05:57Z,42.805,6.029,13.2997,4.60032,2470.203,2022-4-30T16:07:37Z
2022-04-30T14:09:00Z,42.805,6.029,13.2998,4.60033,2470.217,2022-4-30T16:10:40Z
2022-04-30T14:12:03Z,42.805,6.029,13.2997,4.60033,2470.203,2022-4-30T16:13:43Z
2022-04-30T14:15:07Z,42.805,6.029,13.2996,4.60033,2470.18,2022-4-30T16:16:46Z
2022-04-30T14:18:10Z,42.805,6.029,13.3000,4.60034,2470.18,2022-4-30T16:19:49Z
2022-04-30T14:21:13Z,42.805,6.029,13.3000,4.60033,2470.18,2022-4-30T16:22:53Z
2022-04-30T14:24:16Z,42.805,6.029,13.2997,4.60034,2470.18,2022-4-30T16:25:56Z
2022-04-30T14:27:19Z,42.805,6.029,13.2995,4.60035,2470.217,2022-4-30T16:28:59Z
2022-04-30T14:30:22Z,42.805,6.029,13.3000,4.60035,2470.203,2022-4-30T16:32:02Z
2022-04-30T14:33:25Z,42.805,6.029,13.2993,4.60035,2470.156,2022-4-30T16:35:05Z
2022-04-30T14:36:28Z,42.805,6.029,13.2999,4.60036,2470.18,2022-4-30T16:38:08Z
2022-04-30T14:39:32Z,42.805,6.029,13.2997,4.60034,2470.18,2022-4-30T16:41:11Z
2022-04-30T14:42:35Z,42.805,6.029,13.3000,4.60035,2470.227,2022-4-30T16:44:14Z
2022-04-30T14:45:38Z,42.805,6.029,13.2998,4.60035,2470.217,2022-4-30T16:47:18Z
2022-04-30T14:48:41Z,42.805,6.029,13.3003,4.60034,2470.203,2022-4-30T16:50:21Z
2022-04-30T14:51:44Z,42.805,6.029,13.3003,4.60033,2470.18,2022-4-30T16:53:24Z
2022-04-30T14:54:47Z,42.805,6.029,13.2998,4.60034,2470.227,2022-4-30T16:56:27Z
2022-04-30T14:57:50Z,42.805,6.029,13.2996,4.60033,2470.203,2022-4-30T16:59:30Z
2022-04-30T15:00:53Z,42.805,6.029,13.2999,4.60033,2470.203,2022-4-30T17:02:33Z
2022-04-30T15:03:57Z,42.805,6.029,13.2996,4.60033,2470.227,2022-4-30T17:05:36Z
2022-04-30T15:07:00Z,42.805,6.029,13.2996,4.60034,2470.217,2022-4-30T17:08:39Z
2022-04-30T15:10:03Z,42.805,6.029,13.2998,4.60034,2470.227,2022-4-30T17:11:43Z
2022-04-30T15:13:06Z,42.805,6.029,13.2998,4.60036,2470.25,2022-4-30T17:14:46Z